DW4135 Weather Reports


time (UTC)temp
F
wind
direction
speed
knots
gust
knots
rain 1hr
in
rain 24hr
in
rain mn
in
humidity
%
barometer
mb
20211017164202 70 105 0.9 4.3 0.00 0.00 0.00 46 1022.3
20211017163702 70 101 0.9 4.3 0.00 0.00 0.00 46 1022.3
20211017163201 69 56 0.9 6.1 0.00 0.00 0.00 49 1022.3
20211017162705 68 70 1.7 6.1 0.00 0.00 0.00 50 1022.4
20211017162200 68 96 1.7 4.3 0.00 0.00 0.00 48 1022.5
20211017161701 68 118 2.6 4.3 0.00 0.00 0.00 48 1022.6
20211017161202 68 126 1.7 4.3 0.00 0.00 0.00 48 1022.6
20211017160702 68 357 1.7 4.3 0.00 0.00 0.00 50 1022.7
20211017160200 68 101 1.7 5.2 0.00 0.00 0.00 49 1022.7
20211017155701 68 278 1.7 5.2 0.00 0.00 0.00 50 1022.6
20211017155201 67 111 0.9 3.5 0.00 0.00 0.00 49 1022.7
20211017154702 67 82 0.9 3.5 0.00 0.00 0.00 50 1022.7
20211017154201 67 103 1.7 5.2 0.00 0.00 0.00 52 1022.6
20211017153701 66 263 1.7 5.2 0.00 0.00 0.00 50 1022.6
20211017153202 66 279 1.7 5.2 0.00 0.00 0.00 51 1022.6
20211017152703 66 65 1.7 6.1 0.00 0.00 0.00 53 1022.5
20211017152201 65 112 1.7 6.1 0.00 0.00 0.00 52 1022.6
20211017151701 65 55 1.7 4.3 0.00 0.00 0.00 54 1022.6
20211017151201 65 72 1.7 3.5 0.00 0.00 0.00 54 1022.7
20211017150702 64 113 2.6 6.1 0.00 0.00 0.00 55 1022.8
20211017150200 64 83 1.7 6.1 0.00 0.00 0.00 54 1022.7
20211017145701 64 157 0.9 4.3 0.00 0.00 0.00 56 1022.8
20211017145201 64 79 0.9 3.5 0.00 0.00 0.00 58 1022.9
20211017144702 63 30 1.7 3.5 0.00 0.00 0.00 60 1022.8
20211017144203 63 86 0.9 4.3 0.00 0.00 0.00 59 1022.9
20211017143701 63 79 0.9 4.3 0.00 0.00 0.00 60 1022.9
20211017143202 62 249 1.7 4.3 0.00 0.00 0.00 61 1022.9
20211017142702 62 79 0.9 3.5 0.00 0.00 0.00 65 1023.0
20211017142205 61 115 0.9 4.3 0.00 0.00 0.00 64 1022.9
20211017141656 61 97 0.9 4.3 0.00 0.00 0.00 67 1022.8
20211017141158 61 110 0.9 3.5 0.00 0.00 0.00 67 1022.8
20211017140658 60 71 0.9 3.5 0.00 0.00 0.00 67 1022.7
20211017140158 60 292 0.9 3.5 0.00 0.00 0.00 67 1022.6
20211017135701 60 89 0.9 2.6 0.00 0.00 0.00 69 1022.7
20211017135157 59 108 0.0 1.7 0.00 0.00 0.00 70 1022.6
20211017134658 58 303 0.0 1.7 0.00 0.00 0.00 71 1022.6
20211017134158 58 129 0.0 1.7 0.00 0.00 0.00 74 1022.6
20211017133702 56 193 0.0 1.7 0.00 0.00 0.00 75 1022.5
20211017133155 55 322 0.0 2.6 0.00 0.00 0.00 77 1022.4
20211017132655 54 263 0.0 2.6 0.00 0.00 0.00 79 1022.5
20211017132154 53 285 0.0 0.9 0.00 0.00 0.00 82 1022.4
20211017131654 53 281 0.0 0.9 0.00 0.00 0.00 83 1022.4
20211017131153 52 333 0.0 0.9 0.00 0.00 0.00 84 1022.4
20211017130653 52 244 0.0 0.9 0.00 0.00 0.00 85 1022.3
20211017130154 51 271 0.0 0.9 0.00 0.00 0.00 86 1022.3
20211017125656 51 270 0.0 0.9 0.00 0.00 0.00 87 1022.2
20211017125158 50 269 0.0 0.9 0.00 0.00 0.00 88 1022.2
20211017124651 50 269 0.0 0.0 0.00 0.00 0.00 88 1022.2
20211017124148 50 269 0.0 0.0 0.00 0.00 0.00 88 1022.2
20211017123649 50 269 0.0 0.0 0.00 0.00 0.00 88 1022.1
20211017123148 50 269 0.0 0.9 0.00 0.00 0.00 88 1022.1
20211017122652 49 269 0.0 0.9 0.00 0.00 0.00 88 1022.0
20211017122150 49 269 0.0 0.0 0.00 0.00 0.00 88 1022.0
20211017121649 49 269 0.0 0.9 0.00 0.00 0.00 88 1021.9
20211017121148 49 259 0.0 0.9 0.00 0.00 0.00 89 1021.9
20211017120653 49 259 0.0 0.0 0.00 0.00 0.00 88 1021.9
20211017120148 49 259 0.0 0.9 0.00 0.00 0.00 88 1021.8
20211017115644 49 259 0.0 0.9 0.00 0.00 0.00 88 1021.9
20211017115146 49 259 0.0 0.0 0.00 0.00 0.00 88 1021.8
20211017114647 49 259 0.0 0.9 0.00 0.00 0.00 88 1021.8
20211017114145 49 259 0.0 0.9 0.00 0.00 0.00 88 1021.8
20211017113648 49 259 0.0 0.0 0.00 0.00 0.00 88 1021.8
20211017113144 49 259 0.0 0.0 0.00 0.00 0.00 88 1021.7
20211017112645 49 259 0.0 0.0 0.00 0.00 0.00 87 1021.7
20211017112149 49 259 0.0 0.0 0.00 0.00 0.00 88 1021.5
20211017111648 49 259 0.0 0.0 0.00 0.00 0.00 87 1021.5
20211017111145 50 259 0.0 0.9 0.00 0.00 0.00 87 1021.4
20211017110643 50 259 0.0 0.9 0.00 0.00 0.00 87 1021.5
20211017110144 50 259 0.0 0.0 0.00 0.00 0.00 87 1021.3
20211017105641 50 259 0.0 0.0 0.00 0.00 0.00 87 1021.3
20211017105141 50 259 0.0 0.0 0.00 0.00 0.00 87 1021.3
20211017104638 50 259 0.0 0.0 0.00 0.00 0.00 87 1021.2
20211017104139 50 259 0.0 0.0 0.00 0.00 0.00 87 1021.1
20211017103638 50 259 0.0 0.0 0.00 0.00 0.00 87 1021.1
20211017103137 50 260 0.0 0.0 0.00 0.00 0.00 87 1021.1
20211017102634 50 259 0.0 0.9 0.00 0.00 0.00 87 1021.1
20211017102135 50 260 0.0 0.9 0.00 0.00 0.00 87 1021.1
20211017101632 50 246 0.0 0.9 0.00 0.00 0.00 87 1021.0
20211017101133 50 245 0.0 0.9 0.00 0.00 0.00 87 1021.0
20211017100634 50 245 0.0 0.9 0.00 0.00 0.00 87 1021.0
20211017100136 50 245 0.0 0.0 0.00 0.00 0.00 87 1020.9
20211017095634 50 245 0.0 0.0 0.00 0.00 0.00 87 1021.0
20211017095131 50 245 0.0 0.0 0.00 0.00 0.00 86 1020.8
20211017094630 50 245 0.0 0.9 0.00 0.00 0.00 86 1020.9
20211017094129 50 245 0.0 0.9 0.00 0.00 0.00 86 1020.9
20211017093630 51 245 0.0 0.0 0.00 0.00 0.00 86 1020.9
20211017093131 51 245 0.0 0.0 0.00 0.00 0.00 85 1020.9
20211017092629 51 245 0.0 0.9 0.00 0.00 0.00 85 1020.9
20211017092130 51 245 0.0 0.9 0.00 0.00 0.00 86 1021.0
20211017091628 51 245 0.0 0.0 0.00 0.00 0.00 86 1020.9
20211017091125 51 245 0.0 0.9 0.00 0.00 0.00 85 1020.9
20211017090617 51 245 0.0 0.9 0.00 0.00 0.00 85 1020.8
20211017090117 51 245 0.0 0.9 0.00 0.00 0.00 85 1020.7
20211017085620 51 245 0.0 0.9 0.00 0.00 0.00 85 1020.7
20211017085118 51 245 0.0 0.0 0.00 0.00 0.00 84 1020.7
20211017084617 51 245 0.0 0.9 0.00 0.00 0.00 84 1020.6
20211017084116 51 245 0.0 0.9 0.00 0.00 0.00 84 1020.6
20211017083619 51 230 0.0 0.9 0.00 0.00 0.00 84 1020.6
20211017083118 51 217 0.0 0.0 0.00 0.00 0.00 84 1020.4
20211017082616 51 217 0.0 0.0 0.00 0.00 0.00 85 1020.4
20211017082116 51 217 0.0 0.0 0.00 0.00 0.00 84 1020.4
20211017081615 51 217 0.0 0.0 0.00 0.00 0.00 84 1020.3
20211017081113 51 217 0.0 0.0 0.00 0.00 0.00 84 1020.5
20211017080613 52 217 0.0 0.0 0.00 0.00 0.00 84 1020.4
20211017080113 52 217 0.0 0.0 0.00 0.00 0.00 83 1020.5
20211017075614 52 217 0.0 0.0 0.00 0.00 0.00 83 1020.4
20211017075108 52 217 0.0 0.9 0.00 0.00 0.00 83 1020.4
20211017074611 52 217 0.0 0.9 0.00 0.00 0.00 84 1020.3
20211017074103 52 211 0.0 0.0 0.00 0.00 0.00 84 1020.4
20211017073603 52 211 0.0 0.0 0.00 0.00 0.00 83 1020.4
20211017073102 52 211 0.0 0.0 0.00 0.00 0.00 84 1020.4
20211017072605 52 211 0.0 0.0 0.00 0.00 0.00 84 1020.4
20211017072101 52 211 0.0 0.9 0.00 0.00 0.00 83 1020.4
20211017071601 52 211 0.0 0.9 0.00 0.00 0.00 83 1020.6
20211017071101 52 211 0.0 0.0 0.00 0.00 0.00 83 1020.6
20211017070601 53 211 0.0 0.0 0.00 0.00 0.00 83 1020.6
20211017070102 53 211 0.0 0.0 0.00 0.00 0.00 82 1020.6
20211017065601 53 211 0.0 0.0 0.00 0.00 0.00 83 1020.7
20211017065103 53 211 0.0 0.0 0.00 0.00 0.00 82 1020.7
20211017064603 53 211 0.0 0.0 0.00 0.00 0.00 82 1020.7
20211017064102 53 211 0.0 0.0 0.00 0.00 0.00 81 1020.7
20211017063602 53 211 0.0 0.0 0.00 0.00 0.00 81 1020.6
20211017063102 53 211 0.0 0.9 0.00 0.00 0.00 81 1020.7
20211017062601 54 211 0.0 0.9 0.00 0.00 0.00 81 1020.7
20211017062106 54 201 0.0 0.0 0.00 0.00 0.00 81 1020.7
20211017061559 54 202 0.0 0.0 0.00 0.00 0.00 81 1020.6
20211017061058 54 202 0.0 0.0 0.00 0.00 0.00 80 1020.7
20211017060558 54 201 0.0 0.0 0.00 0.00 0.00 80 1020.7
20211017060059 54 201 0.0 0.0 0.00 0.00 0.00 80 1020.7
20211017055558 54 201 0.0 0.0 0.00 0.00 0.00 80 1020.7
20211017055057 54 201 0.0 0.0 0.00 0.00 0.00 80 1020.7
20211017054554 55 200 0.0 0.0 0.00 0.00 0.00 80 1020.7
20211017054053 55 207 0.0 0.9 0.00 0.00 0.00 80 1020.7
20211017053553 55 207 0.0 0.9 0.00 0.00 0.00 80 1020.7
20211017053052 55 154 0.0 0.9 0.00 0.00 0.00 79 1020.8
20211017052550 55 196 0.0 0.0 0.00 0.00 0.00 79 1020.8
20211017052047 55 281 0.0 0.0 0.00 0.00 0.00 79 1020.8
20211017051548 55 281 0.0 0.0 0.00 0.00 0.00 79 1020.8
20211017051047 55 281 0.0 0.0 0.00 0.00 0.00 78 1020.8
20211017050545 56 281 0.0 0.0 0.00 0.00 0.00 78 1020.9
20211017050043 56 281 0.0 0.0 0.00 0.00 0.00 78 1021.0
20211017045541 56 281 0.0 0.0 0.00 0.00 0.00 78 1020.9
20211017045039 56 281 0.0 0.0 0.00 0.00 0.00 77 1020.9
20211017044535 56 281 0.0 0.0 0.00 0.00 0.00 76 1020.9
20211017044034 56 281 0.0 0.0 0.00 0.00 0.00 77 1020.9
20211017043529 56 282 0.0 0.0 0.00 0.00 0.00 77 1020.9
20211017043029 56 282 0.0 0.0 0.00 0.00 0.00 77 1020.9
20211017042526 56 281 0.0 0.0 0.00 0.00 0.00 77 1020.9
20211017042019 56 281 0.0 0.0 0.00 0.00 0.00 77 1020.9
20211017041512 56 281 0.0 0.0 0.00 0.00 0.00 76 1020.9
20211017041004 56 282 0.0 0.0 0.00 0.00 0.00 78 1021.0
20211017040505 56 150 0.0 0.0 0.00 0.00 0.00 78 1020.9
20211017040003 56 223 0.0 0.0 0.00 0.00 0.00 78 1021.0
20211017035501 56 172 0.0 0.0 0.00 0.00 0.00 77 1021.0
20211017035002 57 172 0.0 0.0 0.00 0.00 0.00 77 1020.9
20211017034502 57 172 0.0 0.0 0.00 0.00 0.00 78 1020.8
20211017034003 57 169 0.0 0.0 0.00 0.00 0.00 78 1020.8
20211017033504 57 169 0.0 0.0 0.00 0.00 0.00 77 1020.7
20211017033002 57 169 0.0 0.0 0.00 0.00 0.00 78 1020.7
20211017032502 57 169 0.0 0.0 0.00 0.00 0.00 77 1020.6
20211017032006 57 169 0.0 0.0 0.00 0.00 0.00 77 1020.5
20211017031502 57 256 0.0 0.0 0.00 0.00 0.00 77 1020.5
20211017031002 58 256 0.0 0.9 0.00 0.00 0.00 76 1020.6
20211017030502 58 256 0.0 0.9 0.00 0.00 0.00 76 1020.6
20211017030005 58 256 0.0 0.0 0.00 0.00 0.00 76 1020.6
20211017025501 58 256 0.0 0.0 0.00 0.00 0.00 77 1020.5
20211017025001 58 256 0.0 0.9 0.00 0.00 0.00 76 1020.4
20211017024503 58 255 0.0 0.9 0.00 0.00 0.00 75 1020.4
20211017023959 59 263 0.0 0.0 0.00 0.00 0.00 75 1020.4
20211017023453 59 264 0.0 0.9 0.00 0.00 0.00 75 1020.4
20211017022947 59 264 0.0 0.9 0.00 0.00 0.00 75 1020.2
20211017022449 59 216 0.0 0.0 0.00 0.00 0.00 75 1020.2
20211017021945 59 216 0.0 0.0 0.00 0.00 0.00 74 1020.2
20211017021445 60 216 0.0 0.0 0.00 0.00 0.00 73 1020.1
20211017020945 60 216 0.0 0.9 0.00 0.00 0.00 73 1020.0
20211017020443 60 216 0.0 0.9 0.00 0.00 0.00 72 1019.9
20211017015940 60 216 0.0 0.9 0.00 0.00 0.00 72 1019.9
20211017015440 60 216 0.0 0.9 0.00 0.00 0.00 72 1019.7
20211017014938 60 216 0.0 0.9 0.00 0.00 0.00 72 1019.7
20211017014438 60 216 0.0 0.9 0.00 0.00 0.00 72 1019.6
20211017013935 61 216 0.0 0.9 0.00 0.00 0.00 71 1019.6
20211017013435 61 195 0.0 0.9 0.00 0.00 0.00 71 1019.5
20211017012933 61 97 0.0 0.0 0.00 0.00 0.00 71 1019.5
20211017012432 61 98 0.0 0.9 0.00 0.00 0.00 71 1019.5
20211017011929 61 93 0.0 0.9 0.00 0.00 0.00 70 1019.4
20211017011429 61 93 0.0 0.9 0.00 0.00 0.00 70 1019.4
20211017010931 62 93 0.0 0.9 0.00 0.00 0.00 71 1019.2
20211017010430 62 97 0.0 0.9 0.00 0.00 0.00 68 1019.2
20211017005930 62 98 0.0 0.9 0.00 0.00 0.00 68 1019.1
20211017005432 62 97 0.0 0.9 0.00 0.00 0.00 68 1019.0
20211017004929 63 98 0.0 0.9 0.00 0.00 0.00 68 1019.0
20211017004431 63 198 0.0 1.7 0.00 0.00 0.00 66 1018.9
20211017003931 63 124 0.0 1.7 0.00 0.00 0.00 67 1018.9
20211017003432 63 145 0.0 2.6 0.00 0.00 0.00 67 1018.8
20211017002931 63 286 0.0 2.6 0.00 0.00 0.00 67 1018.8
20211017002429 63 272 0.0 0.9 0.00 0.00 0.00 69 1018.7
20211017001930 63 276 0.0 0.9 0.00 0.00 0.00 68 1018.7
20211017001430 63 159 0.0 0.9 0.00 0.00 0.00 69 1018.6
20211017000930 63 278 0.0 0.9 0.00 0.00 0.00 70 1018.5
20211017000430 63 286 0.0 0.9 0.00 0.00 0.00 71 1018.4
20211016235930 64 286 0.0 0.0 0.00 0.00 0.00 70 1018.4
20211016235431 64 286 0.0 0.9 0.00 0.00 0.00 69 1018.3
20211016234930 65 286 0.0 0.9 0.00 0.00 0.00 68 1018.2
20211016234429 65 286 0.0 0.9 0.00 0.00 0.00 66 1018.2
20211016233930 65 286 0.0 0.9 0.00 0.00 0.00 67 1018.1
20211016233431 65 286 0.0 1.7 0.00 0.00 0.00 66 1018.0
20211016232929 66 286 0.0 1.7 0.00 0.00 0.00 66 1017.8
20211016232431 66 147 0.0 1.7 0.00 0.00 0.00 65 1017.8
20211016231931 66 101 0.0 2.6 0.00 0.00 0.00 64 1017.7
20211016231432 67 304 0.0 2.6 0.00 0.00 0.00 65 1017.6
20211016230930 67 16 0.0 2.6 0.00 0.00 0.00 64 1017.6
20211016230430 67 213 0.0 1.7 0.00 0.00 0.00 66 1017.4
20211016225931 68 10 0.0 0.9 0.00 0.00 0.00 65 1017.3
20211016225430 68 161 0.9 6.1 0.00 0.00 0.00 64 1017.2
20211016224932 68 274 0.9 6.1 0.00 0.00 0.00 63 1017.2
20211016224432 69 141 0.0 3.5 0.00 0.00 0.00 61 1017.1
20211016223928 69 8 0.9 3.5 0.00 0.00 0.00 63 1017.0
20211016223430 69 162 0.9 5.2 0.00 0.00 0.00 62 1016.9
20211016222930 69 316 0.9 5.2 0.00 0.00 0.00 61 1016.8
20211016222429 69 320 0.9 3.5 0.00 0.00 0.00 63 1016.7
20211016221929 70 56 0.0 4.3 0.00 0.00 0.00 61 1016.7
20211016221430 70 294 0.0 4.3 0.00 0.00 0.00 63 1016.6
20211016220929 70 86 0.9 5.2 0.00 0.00 0.00 63 1016.6
20211016220430 70 117 0.9 5.2 0.00 0.00 0.00 62 1016.5
20211016215929 70 311 0.9 6.1 0.00 0.00 0.00 62 1016.5
20211016215430 71 107 0.9 6.1 0.00 0.00 0.00 60 1016.5
20211016214933 71 266 0.9 2.6 0.00 0.00 0.00 60 1016.5
20211016214432 71 89 0.0 2.6 0.00 0.00 0.00 60 1016.5
20211016213931 71 146 0.0 2.6 0.00 0.00 0.00 60 1016.6
20211016213430 71 264 0.9 2.6 0.00 0.00 0.00 60 1016.5
20211016212931 72 96 0.9 5.2 0.00 0.00 0.00 57 1016.2
20211016212432 72 77 0.9 5.2 0.00 0.00 0.00 58 1016.2
20211016211933 72 322 0.9 4.3 0.00 0.00 0.00 59 1016.2
20211016211428 73 82 0.9 4.3 0.00 0.00 0.00 57 1016.2
20211016210930 73 86 0.0 3.5 0.00 0.00 0.00 60 1016.2
20211016210429 73 320 0.0 3.5 0.00 0.00 0.00 58 1016.2
20211016205930 73 179 0.9 6.1 0.00 0.00 0.00 59 1016.2
20211016205428 73 214 0.9 6.1 0.00 0.00 0.00 59 1016.3
20211016204928 74 293 0.9 3.5 0.00 0.00 0.00 59 1016.3
20211016204429 74 291 0.0 2.6 0.00 0.00 0.00 57 1016.3
20211016203928 74 196 0.0 2.6 0.00 0.00 0.00 58 1016.3
20211016203427 74 269 0.9 2.6 0.00 0.00 0.00 55 1016.3
20211016202929 75 252 0.9 6.1 0.00 0.00 0.00 56 1016.3
20211016202427 75 19 0.9 6.1 0.00 0.00 0.00 55 1016.5
20211016201926 76 267 0.9 5.2 0.00 0.00 0.00 53 1016.3
20211016201429 76 210 0.9 5.2 0.00 0.00 0.00 56 1016.3
20211016200922 76 297 0.9 5.2 0.00 0.00 0.00 61 1016.2
20211016200424 76 300 0.9 5.2 0.00 0.00 0.00 58 1016.2
20211016195923 76 100 0.9 4.3 0.00 0.00 0.00 59 1016.1
20211016195423 76 305 0.9 4.3 0.00 0.00 0.00 59 1016.2
20211016194922 76 275 0.9 2.6 0.00 0.00 0.00 58 1016.1
20211016194422 76 311 0.9 3.5 0.00 0.00 0.00 60 1016.2
20211016193924 76 260 0.9 7.0 0.00 0.00 0.00 60 1016.2
20211016193423 76 307 0.9 7.0 0.00 0.00 0.00 59 1016.1
20211016192927 76 271 0.9 10.4 0.00 0.00 0.00 60 1016.2
20211016192419 76 72 0.9 10.4 0.00 0.00 0.00 60 1016.1
20211016191920 76 271 1.7 6.1 0.00 0.00 0.00 60 1016.1
20211016191421 76 81 1.7 5.2 0.00 0.00 0.00 61 1016.0
20211016190921 76 143 0.9 5.2 0.00 0.00 0.00 60 1016.0
20211016190418 76 274 0.9 4.3 0.00 0.00 0.00 61 1016.1
20211016185920 75 255 1.7 4.3 0.00 0.00 0.00 61 1016.2
20211016185420 75 306 1.7 4.3 0.00 0.00 0.00 62 1016.3
20211016184918 75 283 1.7 4.3 0.00 0.00 0.00 62 1016.3
20211016184423 75 281 0.9 4.3 0.00 0.00 0.00 62 1016.3
20211016183915 76 289 0.9 6.1 0.00 0.00 0.00 62 1016.5
20211016183417 75 197 1.7 6.1 0.00 0.00 0.00 63 1016.6
20211016182914 74 231 1.7 6.1 0.00 0.00 0.00 64 1016.5
20211016182416 74 257 1.7 6.1 0.00 0.00 0.00 65 1016.6
20211016181915 75 82 1.7 6.1 0.00 0.00 0.00 64 1016.7
20211016181415 75 282 0.9 4.3 0.00 0.00 0.00 66 1016.7
20211016180914 75 299 0.9 5.2 0.00 0.00 0.00 65 1016.7
20211016180415 75 243 0.9 5.2 0.00 0.00 0.00 68 1016.8
20211016175920 74 122 0.9 4.3 0.00 0.00 0.00 68 1016.9
20211016175417 75 280 0.9 4.3 0.00 0.00 0.00 67 1016.9
20211016174915 75 276 0.9 4.3 0.00 0.00 0.00 69 1016.9
20211016174414 75 53 0.9 4.3 0.00 0.00 0.00 70 1016.9
20211016173915 75 282 0.9 4.3 0.00 0.00 0.00 70 1017.0
20211016173413 75 289 1.7 6.1 0.00 0.00 0.00 72 1016.9
20211016172912 74 110 1.7 6.1 0.00 0.00 0.00 72 1016.9
20211016172412 74 99 1.7 5.2 0.00 0.00 0.00 73 1017.0
20211016171914 74 98 1.7 5.2 0.00 0.00 0.00 73 1017.2
20211016171415 74 264 0.9 5.2 0.00 0.00 0.00 76 1017.2
20211016170910 74 236 0.9 7.0 0.00 0.00 0.00 75 1017.3
20211016170410 74 177 0.0 7.0 0.00 0.00 0.00 75 1017.4
20211016165909 74 288 0.9 5.2 0.00 0.00 0.00 79 1017.4
20211016165410 72 126 0.9 5.2 0.00 0.00 0.00 82 1017.4
20211016164909 71 89 0.9 3.5 0.00 0.00 0.00 83 1017.5
20211016164409 70 282 0.9 5.2 0.00 0.00 0.00 84 1017.5